Regional Weather Roundup
Issued by NWS

Home | Current Version | Previous Version | Graphics & Text | Print | Product List | Glossary On
Versions: 1 2 3 4 5 6 7 8 9 10 11 12 13 14 15 16 17 18 19 20 21 22 23 24 25 26 27 28 29 30 31 32 33 34 35 36 37 38 39 40 41 42 43 44 45 46 47 48 49 50
000
ASUS43 KOAX 021602
RWRNE

WEATHER ROUNDUP FOR NEBRASKA
NATIONAL WEATHER SERVICE OMAHA NE
1000 AM CST MON MAR 02 2015

NOTES: SATELLITE DATA IS BEING USED TO AUGMENT CLOUD COVER ABOVE
       12000 FEET.
       "FAIR" INDICATES FEW OR NO CLOUDS BELOW 12,000 FEET WITH NO
       SIGNIFICANT WEATHER AND/OR OBSTRUCTIONS TO VISIBILITY.

  * THESE STATIONS DO NOT REPORT WEATHER SUCH AS RAIN...SNOW OR FOG.

NEZ001>004-019>022-054>056-021700-
NEBRASKA PANHANDLE

CITY           SKY/WX    TMP DP  RH WIND       PRES   REMARKS
SCOTTSBLUFF    PTSUNNY   34  21  59 S20       29.98F WCI  23
ALLIANCE       CLOUDY    31  17  56 S26G36    30.00F WCI  17
CHADRON        MOSUNNY   36  21  54 S20G28    29.94F WCI  25
KIMBALL        CLOUDY    29  22  73 S17G23    29.95F WCI  17
SIDNEY         CLOUDY    29  19  66 S20G26    30.03F WCI  16
$$

NEZ057>060-069>072-079>082-021700-
SOUTHWEST NEBRASKA

CITY           SKY/WX    TMP DP  RH WIND       PRES   REMARKS
NORTH PLATTE   SUNNY     34  16  47 S18G31    30.18F WCI  23
IMPERIAL         N/A     30  18  60 S20G30    30.14F WCI  17
LEXINGTON      MOSUNNY   33  20  57 S25       30.24F WCI  21
MCCOOK         CLOUDY    32  19  58 S20G25    30.23F WCI  20
OGALLALA       CLOUDY    33  12  41 S22G30    30.12F WCI  21
$$

NEZ005>010-023>029-035>040-094-021700-
NORTH CENTRAL NEBRASKA

CITY           SKY/WX    TMP DP  RH WIND       PRES   REMARKS
VALENTINE      CLOUDY    31  14  49 S22       30.13F WCI  18
AINSWORTH      CLOUDY    30  15  53 S16       30.18F WCI  18
BROKEN BOW     CLOUDY    33  19  56 S21G36    30.23F WCI  21
O`NEILL        CLOUDY    30  15  52 S20G25    30.28F WCI  17
ORD            CLOUDY    32  16  51 S12G23    30.27F WCI  23
$$

NEZ041-046>049-061>064-073>077-083>087-021700-
SOUTH CENTRAL NEBRASKA

CITY           SKY/WX    TMP DP  RH WIND       PRES   REMARKS
GRAND ISLAND   CLOUDY    32  23  69 S12       30.35F WCI  23
AURORA         CLOUDY    33  24  71 S12       30.36F WCI  24
HASTINGS       MOSUNNY   34  20  56 S15G23    30.33F WCI  24
HEBRON         PTSUNNY   34  22  60 S12       30.40F WCI  26
HOLDREGE       MOSUNNY   32  19  57 S21G29    30.28F WCI  20
KEARNEY *      MOSUNNY   34  19  55 S22G28    30.29F WCI  22
YORK           CLOUDY    32  25  74 S9        30.38F WCI  24
$$

NEZ011>018-030>034-042>045-021700-
NORTHEAST NEBRASKA

CITY           SKY/WX    TMP DP  RH WIND       PRES   REMARKS
NORFOLK        CLOUDY    29  15  56 SE14      30.35F WCI  18
ALBION         CLOUDY    29  15  55 SE13      30.34F WCI  19
BLAIR          CLOUDY    29  17  61 E12       30.43S WCI  19
COLUMBUS *     CLOUDY    30  12  47 SE12      30.40F WCI  21
FREMONT        CLOUDY    30  19  62 SE13      30.44R WCI  20
TEKAMAH        CLOUDY    29  17  61 SE14      30.46F WCI  18
WAYNE          CLOUDY    28  16  59 SE16      30.39F WCI  17
$$

NEZ050>053-065>068-078-088>093-021700-
SOUTHEAST NEBRASKA

CITY           SKY/WX    TMP DP  RH WIND       PRES   REMARKS
LINCOLN        CLOUDY    32  19  58 SE8       30.44S WCI  25
OMAHA EPPLEY   CLOUDY    29  17  61 SE13      30.46F WCI  19
BEATRICE       CLOUDY    34  25  70 SE8       30.42F WCI  27
FALLS CITY     CLOUDY    33  24  69 SE10      30.46S WCI  25
NEBRASKA CITY  CLOUDY    30  17  57 SE8       30.44F WCI  23
PLATTSMOUTH    CLOUDY    30  16  57 SE9       30.45S WCI  21
$$

NEZ044-045-051>053-067-021700-
OMAHA AREA

CITY           SKY/WX    TMP DP  RH WIND       PRES   REMARKS
OMAHA EPPLEY   CLOUDY    29  17  61 SE13      30.46F WCI  19
BLAIR          CLOUDY    29  17  61 E12       30.43S WCI  19
FREMONT        CLOUDY    30  19  62 SE13      30.44R WCI  20
MILLARD        CLOUDY    29  17  58 SE7       30.45S WCI  22
PLATTSMOUTH    CLOUDY    30  16  57 SE9       30.45S WCI  21
WAHOO          CLOUDY    29  17  59 SE13      30.44R WCI  19
$$



USA.gov is the U.S. government's official web portal to all federal, state and local government web resources and services.